TimeEST,TemperatureF,Dew PointF,Humidity,Sea Level PressureIn,VisibilityMPH,Wind Direction,Wind SpeedMPH,Gust SpeedMPH,PrecipitationIn,Events,Conditions,WindDirDegrees,DateUTC
12:54 AM,28.9,21.0,72,30.19,10.0,SW,11.5,-,N/A,,Clear,220,2013-01-08 05:54:00
1:54 AM,30.0,21.0,69,30.19,10.0,SW,13.8,-,N/A,,Partly Cloudy,220,2013-01-08 06:54:00
2:54 AM,30.0,21.0,69,30.19,10.0,SSW,13.8,-,N/A,,Scattered Clouds,210,2013-01-08 07:54:00
3:54 AM,30.0,19.9,66,30.19,10.0,SSW,12.7,-,N/A,,Partly Cloudy,210,2013-01-08 08:54:00
4:54 AM,28.0,19.0,69,30.19,10.0,SW,8.1,-,N/A,,Partly Cloudy,220,2013-01-08 09:54:00
5:54 AM,28.0,18.0,66,30.22,10.0,SW,8.1,-,N/A,,Partly Cloudy,220,2013-01-08 10:54:00
6:54 AM,28.0,18.0,66,30.24,10.0,SW,9.2,-,N/A,,Scattered Clouds,220,2013-01-08 11:54:00
7:54 AM,28.9,18.0,64,30.25,10.0,SSW,9.2,-,N/A,,Mostly Cloudy,210,2013-01-08 12:54:00
8:54 AM,28.9,19.0,67,30.28,10.0,SW,10.4,-,N/A,,Mostly Cloudy,220,2013-01-08 13:54:00
9:54 AM,30.0,19.9,66,30.30,10.0,SW,11.5,-,N/A,,Mostly Cloudy,220,2013-01-08 14:54:00
10:54 AM,33.1,21.9,64,30.30,10.0,SW,9.2,-,N/A,,Mostly Cloudy,220,2013-01-08 15:54:00
11:54 AM,35.1,23.0,61,30.30,10.0,SW,6.9,-,N/A,,Overcast,230,2013-01-08 16:54:00
12:54 PM,37.0,23.0,57,30.29,10.0,SSW,6.9,-,N/A,,Mostly Cloudy,200,2013-01-08 17:54:00
1:54 PM,37.9,25.0,60,30.29,10.0,SW,5.8,-,N/A,,Mostly Cloudy,220,2013-01-08 18:54:00
2:54 PM,37.9,25.0,60,30.30,10.0,SSW,5.8,-,N/A,,Mostly Cloudy,200,2013-01-08 19:54:00
3:54 PM,37.9,24.1,57,30.31,10.0,Calm,Calm,-,N/A,,Overcast,0,2013-01-08 20:54:00
4:54 PM,35.1,24.1,64,30.33,9.0,Calm,Calm,-,N/A,,Mostly Cloudy,0,2013-01-08 21:54:00
5:54 PM,30.9,24.1,76,30.34,10.0,Calm,Calm,-,N/A,,Partly Cloudy,0,2013-01-08 22:54:00
6:54 PM,30.0,23.0,75,30.34,9.0,Calm,Calm,-,N/A,,Scattered Clouds,0,2013-01-08 23:54:00
7:54 PM,27.0,21.9,81,30.35,8.0,Calm,Calm,-,N/A,,Scattered Clouds,0,2013-01-09 00:54:00
8:54 PM,27.0,23.0,85,30.34,8.0,Calm,Calm,-,N/A,,Mostly Cloudy,0,2013-01-09 01:54:00
9:54 PM,26.1,21.9,84,30.32,9.0,SSW,3.5,-,N/A,,Mostly Cloudy,200,2013-01-09 02:54:00
10:54 PM,27.0,21.0,78,30.32,8.0,Calm,Calm,-,N/A,,Mostly Cloudy,0,2013-01-09 03:54:00
11:54 PM,26.6,21.2,80,30.29,9.0,Calm,Calm,-,N/A,,Mostly Cloudy,0,2013-01-09 04:54:00